Find Starlink 33593

NORAD ID: 62780 Int'l Des: 2025-015 Owner: SPXS Country: US Constellation: starlink operational
LEOCIRCULAR

Current View

Loading 3D Globe...

About Starlink 33593

Description loading...

Upcoming Passes

Passes for default location (London). Set your location on the main map for personalized predictions.

Altitude History

Loading altitude history...

Two-Line Element Set

1 62780U 25015Y 26150.43835655 .00043321 00000-0 12853-2 0 9993
2 62780 53.1599 302.2823 0001249 103.9871 256.1271 15.34414711 77001
Epoch: May 30, 2026 • Age: 12 hours

Current Status

Altitude 481.8 km
Velocity 7.62 km/s
Sub-Earth Point -53.12°S, 11.61°W
Launch Date Jan 21, 2025
Age 1.3 years
Type internet

Technical Details

Classification Payload
Mass 575.00 kg
Dry Mass 530.00 kg
Total Mass 575.00 kg
Length 0.30 m
Diameter 4.10 m
Span 29.00 m
Shape Box + pan
Manufacturer SPXS
Bus Type Starlink V2MO
Phase Status In Orbit
Owner/State SPXS/US

Most Searched